Paducah, KY

12:07 PM CST on November 20, 2017 (GMT -0600)
Barkley Regional

Weather History for KPAH - April, 2013

Change the Weather History Date:

Friday, April 19, 2013

  Actual Average Record
Temperature  
Mean Temperature 43 °F 59 °F  
Max Temperature 50 °F 71 °F 88 °F (1971)
Min Temperature 35 °F 48 °F 29 °F (1953)
Degree Days  
Heating Degree Days 22 7  
Month to date heating degree days 179 183  
Since 1 July heating degree days 4005 4002  
Cooling Degree Days 0 1  
Month to date cooling degree days 31 19  
Year to date cooling degree days 31 26  
Moisture  
Dew Point 33 °F    
Average Humidity 71    
Maximum Humidity 92    
Minimum Humidity 50    
Precipitation  
Precipitation 0.00 in 0.18 in 2.38 in (1973)
Month to date precipitation 3.91 2.87  
Year to date precipitation 19.68 14.39  
Snow  
Snow 0.00 in 0.00 in T in (2011)
Month to date snowfall 0.0 0.0  
Since 1 July snowfall 6.8 9.1  
Snow Depth 0.00 in    
Sea Level Pressure  
Sea Level Pressure 29.93 in    
Wind  
Wind Speed 11 mph (West)    
Max Wind Speed 21 mph    
Max Gust Speed 29 mph    
Visibility 10 miles    
Events      
T = Trace of Precipitation, MM = Missing Value Source: NWS Daily Summary

Daily Weather History Graph

Daily Weather History Graph

Search for Another Location

Airport or City:

Trip Planner

Search our weather history database for the weather conditions in past years. The results will help you decide how hot, cold, wet, or windy it might be!

Date:

Astronomy

Apr. 19, 2013 Rise Set
Actual Time 6:15 AM CDT 7:33 PM CDT
Civil Twilight 5:48 AM CDT 8:00 PM CDT
Nautical Twilight 5:15 AM CDT 8:33 PM CDT
Astronomical Twilight 4:41 AM CDT 9:07 PM CDT
Moon 1:26 PM CDT (4/19) 2:21 AM CDT (4/19)
Length of Visible Light 14h 12m
Length of Day
13h 18m
First Quarter, 62% of the Moon is Illuminated
Apr 19
First Quarter
Apr 25
Full
May 2
Last Quarter
May 9
New
May 17
First Quarter

Hourly Weather History & Observations

Time (CDT) Temp. Windchill Dew Point Humidity Pressure Visibility Wind Dir Wind Speed Gust Speed Precip Events Conditions
12:53 AM 44.1 °F 37.7 °F 39.0 °F 82% 29.77 in 10.0 mi WNW 12.7 mph 23.0 mph 0.00 in   Overcast
1:53 AM 44.1 °F 37.4 °F 35.1 °F 71% 29.78 in 10.0 mi WNW 13.8 mph 21.9 mph N/A   Overcast
2:10 AM 42.8 °F 37.0 °F 35.6 °F 76% 29.79 in 10.0 mi WNW 10.4 mph 20.7 mph N/A   Overcast
2:33 AM 42.8 °F 36.2 °F 35.6 °F 76% 29.79 in 10.0 mi WNW 12.7 mph 19.6 mph N/A   Overcast
2:50 AM 42.8 °F 35.1 °F 32.0 °F 66% 29.80 in 10.0 mi NW 16.1 mph 26.5 mph N/A   Overcast
2:53 AM 43.0 °F 36.0 °F 32.0 °F 65% 29.81 in 10.0 mi WNW 13.8 mph 26.5 mph N/A   Mostly Cloudy
3:53 AM 43.0 °F 36.8 °F 33.1 °F 68% 29.81 in 10.0 mi WNW 11.5 mph 18.4 mph N/A   Overcast
4:53 AM 42.1 °F 35.7 °F 32.0 °F 67% 29.83 in 10.0 mi WNW 11.5 mph - N/A   Overcast
5:53 AM 42.1 °F 36.1 °F 30.9 °F 65% 29.85 in 10.0 mi West 10.4 mph - N/A   Overcast
6:53 AM 42.1 °F 37.1 °F 33.1 °F 70% 29.88 in 10.0 mi West 8.1 mph - N/A   Overcast
7:53 AM 43.0 °F 36.4 °F 30.9 °F 62% 29.91 in 10.0 mi West 12.7 mph - N/A   Overcast
8:53 AM 42.1 °F 36.1 °F 30.0 °F 62% 29.92 in 10.0 mi West 10.4 mph - N/A   Overcast
9:53 AM 43.0 °F 36.4 °F 28.9 °F 58% 29.94 in 10.0 mi West 12.7 mph - N/A   Overcast
10:53 AM 43.0 °F 35.4 °F 30.0 °F 60% 29.96 in 10.0 mi West 16.1 mph - N/A   Overcast
11:53 AM 45.0 °F 37.1 °F 30.0 °F 56% 29.98 in 10.0 mi West 19.6 mph - N/A   Overcast
12:53 PM 44.1 °F 37.4 °F 30.9 °F 60% 29.98 in 10.0 mi WSW 13.8 mph - N/A   Overcast
1:53 PM 46.9 °F - 32.0 °F 56% 29.96 in 10.0 mi WSW 15.0 mph - N/A   Overcast
2:53 PM 46.0 °F 38.3 °F 30.9 °F 56% 29.98 in 10.0 mi WSW 20.7 mph 26.5 mph N/A   Overcast
3:53 PM 46.9 °F - 32.0 °F 56% 29.99 in 10.0 mi WSW 18.4 mph 24.2 mph N/A   Overcast
4:53 PM 48.0 °F - 30.9 °F 52% 29.99 in 10.0 mi WSW 13.8 mph - N/A   Scattered Clouds
5:53 PM 50.0 °F - 32.0 °F 50% 30.00 in 10.0 mi WSW 13.8 mph - N/A   Partly Cloudy
6:53 PM 48.0 °F - 32.0 °F 54% 30.00 in 10.0 mi SW 9.2 mph - N/A   Clear
7:53 PM 46.0 °F - 33.1 °F 61% 30.02 in 10.0 mi Calm Calm - N/A   Mostly Cloudy
8:53 PM 46.0 °F 43.9 °F 33.1 °F 61% 30.05 in 10.0 mi South 4.6 mph - N/A   Overcast
9:53 PM 42.1 °F 40.2 °F 34.0 °F 73% 30.07 in 10.0 mi SW 3.5 mph - N/A   Clear
10:53 PM 39.9 °F 37.8 °F 34.0 °F 79% 30.09 in 10.0 mi SW 3.5 mph - N/A   Clear
11:53 PM 37.0 °F 33.3 °F 35.1 °F 93% 30.10 in 10.0 mi West 4.6 mph - N/A   Clear